Submittal Forms
Current Contests
Recent Contests

Group Activity Tracker - NCCC and Friends (from list of calls managed by WX5S)

Recent postings for the selected club or group are listed below. Other than the call used, all calls listed are only those associated with the club or group. Click on a call to see the details of the posting.
Status Key: new=new posting, update=update prior posting, move=change club/group, delete=delete prior posting.

Sort by   for past

TimestampCallContestClassPowerScoreStatus
2021-05-09 18:30:59OH/M0CFW(@OH1VR)CQ-MSOABCWLP69,319new6412
2021-05-09 15:17:34W6NVCQ-MSOSB/20CWHP15,488new6412
2021-05-09 03:28:02W6OATArQPSOMixedHP1,449new6413
2021-05-09 01:37:37K6LRNVolta RTTYSOSB/20HP1,277,920new6411
2021-05-07 21:17:37KI6OYKRC SSTSingle OpLP90new6410
2021-05-07 21:09:53K6RBKRC SSTSingle OpHP2,139new6410
2021-05-07 21:07:34WO6WKRC SSTSingle OpLP96new6410
2021-05-07 21:07:20N6TVNKRC SSTSingle OpHP77new6410
2021-05-07 21:03:25WT6KKRC SSTSingle OpHP299new6410
2021-05-07 18:23:52K6CSL7QPSOCWLP8,856new6394
 
2021-05-07 17:35:36K6CSLNewEngQPSingle OpLP70new6397
2021-05-07 06:00:25NN7SS(WD6T)NewEngQPSingle OpHP4,681new6397
2021-05-07 05:59:00NN7SS(WD6T)InQPSingle OpHP1,736new6395
2021-05-07 05:57:27NN7SS(WD6T)DeQPSingle OpHP400new6396
2021-05-07 03:08:56NN7SS(K6UFO)NCCC SprintSingle OpQRP567new6409
2021-05-07 03:06:36N6TVNNCCC SprintSingle OpLP320new6409
2021-05-07 03:04:37N6ZFONCCC SprintSingle OpLP1,462new6409
2021-05-07 03:04:27AJ6VNCCC SprintSingle OpLP1,776new6409
2021-05-07 03:03:12WD6T(@N6RO)NCCC SprintSingle OpLP1,548new6409
2021-05-07 02:22:36NN7SS(K6UFO)NCCC RY-SprintSingle OpQRP216new6408
 
2021-05-07 02:21:06W6IANCCC RY-SprintSingle OpLP152new6408
2021-05-07 02:20:06K6MRNCCC RY-SprintSingle OpLP408new6408
2021-05-07 02:19:06AJ6VNCCC RY-SprintSingle OpLP377new6408
2021-05-07 02:17:54N0KQNCCC RY-SprintSingle OpLP220new6408
2021-05-07 02:17:51K6TDNCCC RY-SprintSingle OpLP310new6408
2021-05-06 20:48:05KG7QXE7QPSO(A)SSBHP2,040new6394
2021-05-06 04:14:31KI6OYCWopsTSingle OpLP1,156new6404
2021-05-06 04:10:01WD6T(@N6RO)CWopsTSingle OpHP26,796new6404
2021-05-06 04:09:21AA6WCWopsTSingle OpLP169new6404
2021-05-06 04:08:01N6ROCWopsTSingle OpHP16new6404
 
2021-05-06 04:07:20WU6XCWopsTSingle OpLP1,089new6404
2021-05-06 04:03:36WO6WCWopsTSingle OpLP600new6404
2021-05-06 04:01:58K6KM(@W6SRR)CWopsTSingle OpHP14,884new6404
2021-05-06 04:01:11K6RBCWopsTSingle OpHP22,500new6404
2021-05-06 03:22:59KI6OYCWopsTSingle OpLP400update6403
2021-05-06 02:37:06K6EI/7(K6EI)NewEngQPSingle OpLP50new6397
2021-05-06 01:28:02K6EI/7(K6EI)7QPCnty Exped SOLP71,757new6394
2021-05-05 23:18:40K0JPCWopsTSingle OpLP729new6403
2021-05-05 20:11:02N6TVNCWopsTSingle OpLP676new6403
2021-05-05 20:02:02WD6T(@N6RO)CWopsTSingle OpHP22,496new6403
 
2021-05-05 20:01:45K6RBCWopsTSingle OpHP29,584new6403
2021-05-05 20:01:43WO6WCWopsTSingle OpLP324new6403
2021-05-05 19:24:30K6KM(@W6SRR)CWopsTSingle OpHP1,156new6403
2021-05-05 14:05:43N6TVNCWopsTSingle OpLP440new6402
2021-05-05 14:05:13K0JPCWopsTSingle OpLP306new6402
2021-05-04 22:25:40N6IJNewEngQPSingle OpHP1,428new6397
2021-05-04 22:19:15N6IJ7QPSOCWHP3,159new6394
2021-05-04 17:34:36K6MINewEngQPSingle OpHP9,590new6397
2021-05-04 17:29:10K6MI7QPSOCWHP6,525new6394
2021-05-04 03:41:55K6GHA7QPSOSSBLP75,088update6394
 
2021-05-04 03:22:27N6YEU7QPSOCWLP243new6394
2021-05-04 02:00:53N3RCNewEngQPSingle OpHP12,690new6397
2021-05-04 00:06:33K6KSNewEngQPSingle OpLP9new6397
2021-05-04 00:03:13K6KS7QPSO(A)SSBLP1,560new6394
2021-05-03 20:43:39K7XCNewEngQPSingle OpHP8new6397
2021-05-03 20:39:48K7XCInQPSingle OpHP594new6395
2021-05-03 17:37:29NC6R7QPSOSSBHP9,898new6394
2021-05-03 17:24:42KH6LC7QPSOCWHP102,024update6394
2021-05-03 17:19:01N6DEDeQPSingle OpHP20new6396
2021-05-03 17:13:12N6DEInQPSingle OpHP30new6395
 
2021-05-03 17:08:14N6DENewEngQPSingle OpHP940new6397
2021-05-03 15:31:34N6DE7QPSO(A)MixedHP62,424new6394
2021-05-03 12:51:55K6RMNewEngQPSingle OpLP768new6397
2021-05-03 07:08:30KU6S(@WT6K)NewEngQPSingle OpLP54,718new6397
2021-05-03 06:55:27KU6S(@WT6K)InQPSingle OpLP54,718new6395
2021-05-03 06:42:33WT6K7QPSOCWLP54,718new6394
2021-05-03 04:49:06W7TR(KH2TJ)InQPSingle OpLP4new6395
2021-05-03 04:46:42W7TR(KH2TJ)NewEngQPSingle OpLP54new6397
2021-05-03 04:44:16W7TR(KH2TJ)DeQPSingle OpLP40new6396
2021-05-03 04:40:23W7TR(KH2TJ)7QPSO(A)MixedLP23,241new6394
 
2021-05-03 03:01:10W7EEE(W6IA)7QPCnty Exped M/MLP126,540new6394
2021-05-03 01:44:59W1RH7QPSO(A)MixedHP1,932new6394
2021-05-03 01:42:20W1RHNewEngQPSingle OpHP3,658new6397
2021-05-03 01:24:18WO6WKRC SSTSingle OpLP24new6398
2021-05-03 01:22:20KF6NCXKRC SSTSingle OpHP182new6398
2021-05-03 01:19:32W6OATInQPSingle OpHP1,020update6395
2021-05-03 01:11:54KI6OYKRC SSTSingle OpLP192new6398
2021-05-03 01:04:11K6TJKRC SSTSingle OpLP132new6398
2021-05-03 01:00:24K9YCNewEngQPSingle OpHP18,228new6397
2021-05-03 00:55:41K9YC7QPSO(A)CWHP93,993new6394
 
2021-05-03 00:36:32W6OATNewEngQPSingle OpHP4,154new6397
2021-05-03 00:35:53K0JPInQPSingle OpLP2new6395
2021-05-03 00:33:37K0JPDeQPSingle OpLP2new6396
2021-05-03 00:29:33K0JPNewEngQPSingle OpLP736new6397
2021-05-03 00:28:03W6OATDeQPSingle OpHP240new6396
2021-05-03 00:26:48K0JP7QPSOMixedLP3,906new6394
2021-05-03 00:16:43KE8FTNewEngQPSingle OpHP380new6397
2021-05-03 00:13:31KE8FTDeQPSingle OpHP60new6396
2021-05-03 00:12:37N0KQKRC SSTSingle OpHP20new6398
2021-05-03 00:10:50W7QM7QPCnty Exped SOLP105,600new6394
 
2021-05-02 23:54:50N6ZFO7QPSOMixedHP58,766update6394
2021-05-02 23:52:04AJ6VNewEngQPSingle OpHP6,300new6397
2021-05-02 23:41:28W6DMWNewEngQPSingle OpLP4new6397
2021-05-02 23:39:13N6ZFONewEngQPSingle OpHP18,703new6397
2021-05-02 23:31:25KK6P(@W7IV)NewEngQPSingle OpHP480new6397
2021-05-02 23:30:26KK6P(@W7IV)InQPSingle OpHP4new6395
2021-05-02 23:29:06KK6P(@W7IV)7QPSOMixedHP8,466new6394
2021-05-02 22:48:39K6CTA7QPSOCWQRP1,440new6394
2021-05-02 22:23:29AJ6VDeQPSingle OpHP150new6396
2021-05-02 22:20:17AJ6VInQPSingle OpHP216new6395
 
2021-05-02 21:56:24K2RDNewEngQPSingle OpHP7,524new6397
2021-05-02 21:54:09K2RD7QPSO(A)SSBHP165,600new6394
2021-05-02 20:25:35N6TVNNewEngQPSingle OpLP736new6397
2021-05-02 20:24:22K7XC7QPSO(A)MixedHP77,267new6394
2021-05-02 19:20:26K6ST7QPSO(A)SSBLP480update6394
2021-05-02 18:57:57OH/M0CFW(@OH1VR)NewEngQPSingle OpHP644new6397
2021-05-02 18:53:40OH/M0CFW(@OH1VR)7QPSO(A)CWHP507new6394
2021-05-02 18:46:28OH/M0CFW(@OH1VR)ARISO CWHP92,730new6393
2021-05-02 18:22:53K7RC(K6DGW,@W7RN)7QPSOCWHP176,280new6394
2021-05-02 17:39:11N6DZ(W6NV)7QPSOCWHP108new6394
 
2021-05-02 17:37:05N6DZ(W6NV)NewEngQPSingle OpHP18new6397
2021-05-02 17:35:39W6NVNewEngQPSingle OpHP180new6397
2021-05-02 17:17:18W6NV7QPSOCWHP13,740new6394
2021-05-02 16:50:02K6TQ7QPSO(A)SSBHP240new6394
2021-05-02 16:11:28K6NV7QPSO(A)CWHP12,320new6394
2021-05-02 15:03:27K7GK/6(@K7GK)7QPSO(A)MixedHP150,750new6394
2021-05-02 14:30:06N6TVN7QPSOCWLP35,112new6394
2021-05-02 08:05:44W6JTI7QPSOCWQRP83,808new6394
2021-05-02 07:25:55W6DMW7QPSOSSBLP4,408new6394
2021-05-02 07:19:55W6OAT7QPSO(A)CWHP270,549new6394
 
2021-05-02 07:19:33WB6JJJ7QPSOMixedHP3,582new6394
2021-05-02 07:14:22KE8FTInQPSingle OpHP80new6395
2021-05-02 07:10:54NN7SS(WD6T)7QPSO(A)MixedHP275,740new6394
2021-05-02 07:07:21KE8FT7QPSOSSBHP43,608new6394
2021-05-02 07:00:28N6RO7QPSOCWHP528new6394
2021-05-02 06:43:59N3RC7QPSO(A)MixedHP58,919new6394
2021-05-02 06:16:47AJ6V7QPSOMixedHP49,329new6394
2021-05-02 06:06:08WU6W/7(@WU6W)7QPSOMixedHP22,608new6394
2021-05-02 06:03:38K6LRG(N6WM)7QPSOCWHP1,344new6394
2021-05-02 05:26:06K6SRZ7QPSOCWLP68,595new6394
 
2021-05-02 04:41:13K6KMNewEngQPSingle OpHP3,150new6397
2021-05-02 04:37:50K6KM7QPSOCWHP67,551new6394
2021-05-01 18:05:36K6ELMWaveSprngSprntSingle OpQRP38new6392
2021-05-01 04:21:31N6RONCCC SprintSingle OpHP12new6390
2021-04-30 21:28:19KI6OYKRC SSTSingle OpLP187new6391
2021-04-30 21:05:42N6TVNKRC SSTSingle OpLP320new6391
2021-04-30 21:02:41WT6KKRC SSTSingle OpHP352new6391
2021-04-30 20:57:00N0KQKRC SSTSingle OpHP690new6391
2021-04-30 03:19:31N3ZZNCCC SprintSingle OpLP1,496new6390
2021-04-30 03:09:59N6ZFONCCC SprintSingle OpLP1,927new6390
 
2021-04-30 03:06:32N6TVNNCCC SprintSingle OpLP525new6390
2021-04-30 03:04:31K6MRNCCC SprintSingle OpLP2,080new6390
2021-04-30 03:03:37AJ6VNCCC SprintSingle OpLP1,290new6390
2021-04-30 02:34:50KF6NCXCWopsTSingle OpHP256new6386
2021-04-30 02:21:09NN7SS(K6UFO)NCCC RY-SprintSingle OpQRP252new6389
2021-04-30 02:18:48AJ6VNCCC RY-SprintSingle OpLP480new6389
2021-04-30 02:18:03N0KQNCCC RY-SprintSingle OpLP264new6389
2021-04-30 02:17:47K6MRNCCC RY-SprintSingle OpLP560new6389
2021-04-30 02:17:12K6TDNCCC RY-SprintSingle OpLP360new6389
2021-04-29 05:44:41WD6TCWopsTSingle OpHP17,161new6386
 
2021-04-29 05:25:30KI6OYCWopsTSingle OpLP1,024new6386
2021-04-29 04:06:18WO6WCWopsTSingle OpLP380new6386
2021-04-29 04:03:22K6RBCWopsTSingle OpHP12,932new6386
2021-04-29 03:57:38AA6WCWopsTSingle OpLP441new6386
2021-04-29 03:12:35K6KMCWopsTSingle OpHP100new6386
2021-04-28 21:51:53KI6OYCWopsTSingle OpLP576new6385
2021-04-28 20:05:12N6TVNCWopsTSingle OpLP1,225new6385
2021-04-28 20:02:05K6TJCWopsTSingle OpLP400new6385
2021-04-28 20:01:58N0KQCWopsTSingle OpHP2,650new6385
2021-04-28 20:01:14K6RBCWopsTSingle OpHP28,561new6385
 
2021-04-28 20:00:54WO6WCWopsTSingle OpLP121new6385
2021-04-28 14:04:40N6TVNCWopsTSingle OpLP484new6384
2021-04-28 13:18:55K6RBCWopsTSingle OpHP484new6384
2021-04-26 22:30:53AA6AA(@W7RN)FlQPSOABCWQRP52,704new6375
2021-04-26 04:12:15W6DMWFlQPSOABSSBLP360update6375
2021-04-26 03:59:15KA6BIMFlQPSOAB(A)MixedLP76,176update6375
2021-04-26 03:52:54K0JPFlQPSOABMixedLP676update6375
2021-04-26 02:58:40N0KQKRC SSTSingle OpLP400new6380
2021-04-26 02:08:11KI6OYKRC SSTSingle OpLP50new6380
2021-04-26 02:08:04WD6TFlQPSOAB(A)CWHP2new6375
 
2021-04-25 23:57:54N6YEUFlQPSOABMixedLP3,510new6375
2021-04-25 23:05:14W7TR(KH2TJ)FlQPSOAB(A)MixedLP23,500new6375
2021-04-25 22:34:54K6CSLFlQPSOABCWLP308new6375
2021-04-25 22:21:57N3ZZFlQPSOABCWLP13,120new6375
2021-04-25 22:13:30KH6LCFlQPM/SCWHP18,468new6375
 (@KH6LC)
2021-04-25 22:08:14N6TVNFlQPSOABCWHP3,630new6375
2021-04-25 22:06:40KE8FTFlQPSOABSSBHP1,247new6375
2021-04-25 20:52:32AJ6VBARTG 75Single OpHP264new6374
2021-04-25 20:29:40W6NVFlQPSOABCWHP5,402new6375
2021-04-25 20:07:17N0KQBARTG 75Single OpHP209new6374
 
2021-04-25 20:05:57W6IAFlQPSOAB(A)CWHP1,360new6375
2021-04-25 19:27:52WU6W/7(@WU6W)BARTG 75Single OpHP64new6374
2021-04-25 16:11:38WU6WSPDX RTTYSOABHP2,176new6372
2021-04-25 15:45:06KE6GLASPDX RTTYSOABLP84new6372
2021-04-23 23:44:34KA6BIMMiQPSingle OpHP11,200new6357
2021-04-23 23:37:52KA6BIMOnQPSO MixedHP28,314new5642
2021-04-23 22:11:53KI6OYKRC SSTSingle OpLP54new6371
2021-04-23 21:04:17WT6KKRC SSTSingle OpHP180new6371
2021-04-23 21:03:28N6TVNKRC SSTSingle OpLP400new6371
2021-04-23 21:02:34K6TJKRC SSTSingle OpLP150new6371
 
2021-04-23 20:49:56K6RBKRC SSTSingle OpHP1,482new6371
2021-04-23 05:10:38N6ZFONCCC SprintSingle OpLP1,452new6370
2021-04-23 03:05:24N6TVNNCCC SprintSingle OpLP480new6370
2021-04-23 03:05:18WD6T(@N6RO)NCCC SprintSingle OpLP1,768new6370
2021-04-23 03:05:15AJ6VNCCC SprintSingle OpLP1,230new6370
2021-04-23 03:02:59N3ZZNCCC SprintSingle OpLP1,505new6370
2021-04-23 02:24:10NN7SS(K6UFO)NCCC RY-SprintSingle OpQRP168new6369
2021-04-23 02:22:39N0KQNCCC RY-SprintSingle OpLP264new6369
2021-04-23 02:20:53AJ6VNCCC RY-SprintSingle OpLP560new6369
2021-04-23 02:19:21K6TDNCCC RY-SprintSingle OpLP420new6369
 
2021-04-23 02:17:56W6DMWNCCC RY-SprintSingle OpLP40new6369
2021-04-22 11:45:13AA6WCWopsTSingle OpLP256new6366
2021-04-22 05:23:18KI6OYCWopsTSingle OpLP1,089new6366
2021-04-22 04:04:01WT6KCWopsTSingle OpHP1,849new6366
2021-04-22 04:02:50WD6T(@N6RO)CWopsTSingle OpHP26,040new6366
2021-04-22 04:01:25WO6WCWopsTSingle OpLP529new6366
2021-04-22 03:57:04K6RBCWopsTSingle OpHP14,750new6366
2021-04-21 20:53:19KI6OYCWopsTSingle OpLP729new6365
2021-04-21 20:15:32WT6KCWopsTSingle OpHP2,304new6365
2021-04-21 20:04:08WO6WCWopsTSingle OpLP289new6365
 
2021-04-21 20:03:28N6TVNCWopsTSingle OpHP1,849new6365
2021-04-21 20:02:46WD6T(@N6RO)CWopsTSingle OpHP34,040new6365
2021-04-21 20:01:27K6RBCWopsTSingle OpHP30,976new6365
2021-04-21 14:05:04N6TVNCWopsTSingle OpHP784new6364
2021-04-21 14:01:55WU6XCWopsTSingle OpLP529new6364
2021-04-21 13:39:16K6RBCWopsTSingle OpHP3,364new6364
2021-04-19 23:16:57W7TR(KH2TJ)OnQPSO CWLP336new5642
2021-04-19 23:12:50W7TR(KH2TJ)CQMM DXSOABLP10,461new6356
2021-04-19 03:11:17N6ROCQMM DXSOSB/80HP172new6356
2021-04-19 02:37:26WU6XKRC SSTSingle OpLP352update6358
 
2021-04-19 01:33:00K2RDCQMM DXSOABHP44,396new6356
2021-04-19 01:25:32K6RBKRC SSTSingle OpHP234new6358
2021-04-19 01:18:45KI6OYKRC SSTSingle OpLP160new6358
2021-04-19 01:03:12WT6KKRC SSTSingle OpHP420new6358
2021-04-19 00:26:45K6CSLCQMM DXSOABLP957new6356
2021-04-18 23:40:30W6OATCQMM DXSOABHP4,536new6356
2021-04-18 23:25:37N0KQCQMM DXSOABHP7,050new6356
2021-04-18 22:18:26N3ZZMiQPSingle OpLP800new6357
2021-04-18 18:07:35KE8FTOnQPSO SSBHP182new5642
2021-04-18 17:37:28K0JPOnQPSO MixedLP27new5642
 
2021-04-18 05:07:15W6OATMiQPSingle OpHP3,549new6357
2021-04-18 04:03:40KE8FTMiQPSingle OpHP400new6357
2021-04-17 23:04:50K0JPMiQPSingle OpLP66new6357
2021-04-17 20:37:44AJ6TGagarin DXSOSB/40LP240new6338
2021-04-16 21:22:57KI6OYKRC SSTSingle OpLP99new6351
2021-04-16 21:02:31N6TVNKRC SSTSingle OpLP650new6351
2021-04-16 20:44:19K6RBKRC SSTSingle OpHP1,400new6351
2021-04-16 03:29:30N6ZFONCCC SprintSingle OpLP1,320new6350
2021-04-16 03:08:27K6NV(@W7RN)NCCC SprintSingle OpLP340new6350
2021-04-16 03:07:06N6TVNNCCC SprintSingle OpLP396new6350
 
2021-04-16 03:04:57N3ZZNCCC SprintSingle OpLP1,530new6350
2021-04-16 03:04:50K7GKNCCC SprintSingle OpLP736new6350
2021-04-16 03:03:37AJ6VNCCC SprintSingle OpLP1,160new6350
2021-04-16 03:03:30WD6T(@N6RO)NCCC SprintSingle OpLP1,680new6350
2021-04-16 03:03:13K6MRNCCC SprintSingle OpLP1,950new6350
2021-04-16 02:33:43K6KMNCCC SprintSingle OpLP4new6350
2021-04-16 02:20:11N0KQNCCC RY-SprintSingle OpLP216new6349
2021-04-16 02:19:09AJ6VNCCC RY-SprintSingle OpLP300new6349
2021-04-16 02:18:15K6TDNCCC RY-SprintSingle OpLP264new6349
2021-04-16 02:17:12K6MRNCCC RY-SprintSingle OpLP624new6349
 
2021-04-15 04:17:07KI6OYCWopsTSingle OpLP1,296new6347
2021-04-15 04:13:44WU6XCWopsTSingle OpLP3,136new6347
2021-04-15 04:05:41WD6T(@N6RO)CWopsTSingle OpHP25,670new6347
2021-04-15 04:04:25KH6LCCWopsTSingle OpHP9,409new6347
2021-04-15 04:03:00K6RBCWopsTSingle OpHP19,500new6347
2021-04-15 04:02:58N6ROCWopsTSingle OpHP64new6347
2021-04-15 03:36:55AA6WCWopsTSingle OpLP169new6347
2021-04-15 00:04:16KF6NCXCWopsTSingle OpHP121new6346
2021-04-14 21:00:36KI6OYCWopsTSingle OpLP400new6346
2021-04-14 20:11:23N6TVNCWopsTSingle OpLP1,764new6346
 
2021-04-14 20:03:28WD6T(@N6RO)CWopsTSingle OpHP23,409new6346
2021-04-14 20:01:58WU6XCWopsTSingle OpLP380new6346
2021-04-14 20:00:54K6RBCWopsTSingle OpHP24,964new6346
2021-04-14 19:47:57WO6WCWopsTSingle OpLP121new6346
2021-04-14 19:34:33N0KQCWopsTSingle OpHP400new6346
2021-04-14 19:15:23K6KM(@W6SRR)CWopsTSingle OpHP121new6346
2021-04-14 14:03:21WT6KCWopsTSingle OpHP256new6345
2021-04-14 14:03:03WU6XCWopsTSingle OpLP529new6345
2021-04-14 14:01:45W6SXCWopsTSingle OpHP6,557new6345
2021-04-14 13:53:01K6RBCWopsTSingle OpHP1,296new6345
 
2021-04-13 17:47:17KF6NCXKRC SSTSingle OpHP375new6339
2021-04-13 17:35:05N6DENeQPOut of StateLP624new6334
2021-04-13 02:55:00KA6BIMMSQPSingle OpHP1,896new6315
2021-04-13 02:51:11KA6BIMLaQPFixed MixedHP724new6314
2021-04-12 23:23:55KF6NCXJIDX CWSOABHP20new6331
2021-04-12 23:16:14KF6NCXGaQPSingle OpMixedHP66new6336
2021-04-12 23:06:20KF6NCXNeQPFixedHP315new6334
2021-04-12 22:50:08KF6NCXNMQPSingle OpHP1new6335
2021-04-12 20:42:54N6DENMQPMulti-OpLP90new6335
 (N6DE)
2021-04-12 19:44:03N6DENDQPOut of StateLP105new6337
 
2021-04-12 17:06:43N6DEGaQPSingle OpCWLP3,100new6336
2021-04-12 15:02:53K6TQNDQPFixedHP81new6337
2021-04-12 15:02:06K6TQGaQPSingle OpSSBHP99new6336
2021-04-12 14:57:26K6TQNeQPFixedHP210new6334
2021-04-12 14:17:13K3ESTJIDX CWM/2HP178,500update6331
 (W9KKN,WX5S,N6WM,K3EST,WD6T,K6AW,@N6RO)
2021-04-12 14:15:16K0JPNDQPMobileLP9,758update6337
 (@K0JP)
2021-04-12 04:48:45KA6BIMNDQPOut of StateHP2,501new6337
2021-04-12 04:37:16KA6BIMGaQPSingle OpMixedHP25,088new6336
2021-04-12 04:27:17KA6BIMNeQPOut of StateHP8,690new6334
2021-04-12 04:16:02KA6BIMNMQPSingle OpHP2,856new6335
 
2021-04-12 03:43:53WT6KKRC SSTSingle OpHP403new6339
2021-04-12 03:15:08W6SXKRC SSTSingle OpHP1,176new6339
2021-04-12 01:49:57WU6XKRC SSTSingle OpLP351new6339
2021-04-12 01:42:10K6SRZJIDX CWSOSB/40HP286new6331
2021-04-12 01:40:56KI6OYKRC SSTSingle OpLP192new6339
2021-04-12 01:01:27N0KQKRC SSTSingle OpLP450new6339
2021-04-12 00:57:32KE8FTGaQPSingle OpSSBHP1,150new6336
2021-04-12 00:54:23K6RBKRC SSTSingle OpHP1,071new6339
2021-04-11 23:57:15W6IANeQPOut of StateHP4update6334
2021-04-11 22:52:39W6OATNDQPOut of StateHP1,800new6337
 
2021-04-11 22:33:05N3ZZGaQPM/SLP80new6336
 (@N3ZZ)
2021-04-11 22:29:21W6OATNeQPOut of StateHP756new6334
2021-04-11 22:16:22W6OATGaQPSingle OpMixedHP2,368new6336
2021-04-11 22:07:54KE8FTNeQPOut of StateHP1,798new6334
2021-04-11 21:56:18W6IANDQPOut of StateHP4new6337
2021-04-11 21:52:29W6IAGaQPSingle OpCWHP234new6336
2021-04-11 21:04:36W6OATNMQPSingle OpHP84new6335
2021-04-11 20:53:44W6SXGaQPSingle OpCWHP320new6336
2021-04-11 20:47:46W6SXGagarin DXSOABHP185new6338
2021-04-11 20:38:20N6TVNJIDX CWSOABHP132new6331
 
2021-04-11 19:08:24KH6TU(AD6E)JIDX CWSOABHP16,350new6331
2021-04-11 18:58:07KE8FTNDQPOut of StateHP1,092new6337
2021-04-11 18:35:50K6TQIG-RY RTTYSingle OpHP4,700new6340
2021-04-11 18:28:39K6TQNMQPSingle OpHP108new6335
2021-04-11 18:23:31K2RDJIDX CWSOABHP4,840new6331
2021-04-11 16:43:49K6RBJIDX CWSOABHP11,220new6331
2021-04-11 14:48:59W6SXIG-RY RTTYSingle OpHP10,148new6340
2021-04-11 13:42:51W6SXJIDX CWSOABHP1,242new6331
2021-04-11 04:04:35KE8FTNMQPSingle OpHP240new6335
2021-04-11 02:17:37W6IANMQPSingle OpHP105new6335
 
2021-04-09 21:49:00W6SXKRC SSTSingle OpHP1,000new6330
2021-04-09 21:20:21KI6OYKRC SSTSingle OpLP42new6330
2021-04-09 21:06:23N6TVNKRC SSTSingle OpHP306new6330
2021-04-09 21:05:29WT6KKRC SSTSingle OpHP196new6330
2021-04-09 21:04:04W6EUKRC SSTSingle OpHP888new6330
2021-04-09 20:41:38N0KQKRC SSTSingle OpLP240new6330
2021-04-09 16:55:27KF6NCXCWopsTSingle OpHP169new6326
2021-04-09 03:07:39K6NV/7(K6NV,@W7RN)NCCC SprintSingle OpLP700new6329
2021-04-09 03:06:42N6TVNNCCC SprintSingle OpLP336new6329
2021-04-09 03:03:59AJ6VNCCC SprintSingle OpLP1,254new6329
 
2021-04-09 03:02:53N3ZZNCCC SprintSingle OpLP1,312new6329
2021-04-09 02:19:17AJ6VNCCC RY-SprintSingle OpLP448new6328
2021-04-09 02:19:06K6TDNCCC RY-SprintSingle OpLP350new